Regional Weather Roundup
Issued by NWS

Home | Current Version | Previous Version | Graphics & Text | Print | Product List | Glossary On
Versions: 1 2 3 4 5 6 7 8 9 10 11 12 13 14 15 16 17 18 19 20 21 22 23 24 25 26 27 28 29 30 31 32 33 34 35 36 37 38 39 40 41 42 43 44 45 46 47 48 49 50
000
ASUS43 KFSD 191810
RWRSD

WEATHER ROUNDUP FOR SOUTH DAKOTA
NATIONAL WEATHER SERVICE SIOUX FALLS SD
100 PM CDT SUN OCT 19 2014

NOTE: "FAIR" INDICATES FEW OR NO CLOUDS BELOW 12,000 FEET WITH NO
SIGNIFICANT WEATHER AND/OR OBSTRUCTIONS TO VISIBILITY.


SDZ001>005-009-010-012>017-191900-
NORTHWEST AND NORTH CENTRAL SOUTH DAKOTA

CITY           SKY/WX    TMP DP  RH WIND       PRES   REMARKS
BUFFALO          N/A     68  40  35 W13       29.98S
FAITH            N/A     69  41  36 NW14      30.01R
MOBRIDGE       SUNNY     68  44  42 W8        29.93R
$$

SDZ012>016-024>037-041>051-057-063-072>074-191900-
SOUTHWEST AND SOUTH CENTRAL SOUTH DAKOTA

CITY           SKY/WX    TMP DP  RH WIND       PRES   REMARKS
RAPID CTY ARPT SUNNY     69  39  33 N8        30.06S
PIERRE         SUNNY     71  42  35 NW12      29.96S
CUSTER         SUNNY     66  32  28 VRB5      30.14S
ELLSWORTH AFB  SUNNY     69  40  35 N7        30.06S
PHILIP         SUNNY     74  40  29 N8        30.00S
PINE RIDGE     SUNNY     68  43  40 VRB3      30.06F
SPEARFISH      FAIR      64  39  39 W7        30.10S
WINNER         FAIR      75  40  28 NW10      29.98S
$$

SDZ004>011-016>023-039-040-191900-
NORTHEAST SOUTH DAKOTA

CITY           SKY/WX    TMP DP  RH WIND       PRES   REMARKS
ABERDEEN       SUNNY     73  45  36 NW13G20   29.89S
WATERTOWN      SUNNY     67  43  41 NW12      29.88S
SISSETON         N/A     71  41  33 NW18      29.84R
$$

SDZ017-020-022-023-036>040-048>070-191900-
SOUTHEAST SOUTH DAKOTA

CITY           SKY/WX    TMP DP  RH WIND       PRES   REMARKS
SIOUX FALLS    MOSUNNY   65  46  50 VRB7      29.91F
HURON          SUNNY     73  41  31 NW9       29.91S
CHAMBERLAIN    SUNNY     71  42  34 W10       29.96S
MITCHELL       SUNNY     72  42  34 W8        29.92F
YANKTON        SUNNY     64  46  52 S8        29.94S
$$

ABBREVIATIONS USED IN REMARKS
   TC - TEMPERATURE IN CELSIUS
  WCI - WIND CHILL INDEX
   HX - HEAT INDEX
  VSB - VISIBILITY



USA.gov is the U.S. government's official web portal to all federal, state and local government web resources and services.